sat.trackr.live / text

‹ back to catalog

STARLINK-11262 [DTC]

NORAD 62009 · 2024-213B

PAYLOAD ACTIVE UNKNOWN

§ Identity

Operator
Country
US
Launch date
2024-11-18
Launch site
AFWTR
Launch vehicle
Mass (kg)
RCS (m²)

Purposes: comms

External: N2YO · Heavens-Above · Gunter

§ Orbital elements

Epoch: 2026-05-25T01:03:12.667968Z

Period
91.74 min
Inclination
53.1574°
Eccentricity
0.0001386
Mean motion
15.69738365 rev/d
Perigee alt
358.7 km
Apogee alt
360.6 km
Semi-major
6,737.8 km
B*
1.2332e-3
RAAN
25.1473°
Arg perigee
62.5243°
Mean anomaly
297.5915°
Rev number
8,690

§ Raw data

STARLINK-11262 [DTC]1 62009U 24213B   26145.04389662  .00151748  00000+0  12332-2 0  99932 62009  53.1574  25.1473 0001386  62.5243 297.5915 15.69738365 86900

JSON: /api/v1/satellites/62009 · /tle

For live sub-satellite position, see the globe view (requires WebGL).

§ Visibility from observer

Set your observer location to see the next 7 days of passes ≥ 10°. The values pass through the URL so the page stays shareable.

No JS? Fill the form by hand. The geolocation button needs JavaScript.